sat.trackr.live / text

‹ back to catalog

HULIANWANG DIGUI-161

NORAD 68135 · 2026-047G

PAYLOAD ACTIVE UNKNOWN

§ Identity

Operator
Country
PRC
Launch date
2026-03-12
Launch site
WSC
Launch vehicle
Mass (kg)
RCS (m²)

External: N2YO · Heavens-Above · Gunter

§ Orbital elements

Epoch: 2026-05-25T00:46:29.825760Z

Period
108.33 min
Inclination
50.0072°
Eccentricity
0.0000279
Mean motion
13.29330984 rev/d
Perigee alt
1,149.1 km
Apogee alt
1,149.5 km
Semi-major
7,527.4 km
B*
7.7131e-5
RAAN
139.1116°
Arg perigee
350.7917°
Mean anomaly
9.2950°
Rev number
999

§ Raw data

HULIANWANG DIGUI-1611 68135U 26047G   26145.03228965 -.00000088  00000+0  77131-4 0  99942 68135  50.0072 139.1116 0000279 350.7917   9.2950 13.29330984  9995

JSON: /api/v1/satellites/68135 · /tle

For live sub-satellite position, see the globe view (requires WebGL).

§ Visibility from observer

Set your observer location to see the next 7 days of passes ≥ 10°. The values pass through the URL so the page stays shareable.

No JS? Fill the form by hand. The geolocation button needs JavaScript.